Huntsville, AL

3:49 PM CST on February 25, 2017 (GMT -0600)
Huntsville International

Weather History for KHSV - September, 2012

Change the Weather History Date:

Tuesday, September 18, 2012

  Actual Average Record
Temperature  
Mean Temperature 65 °F 73 °F  
Max Temperature 77 °F 84 °F 102 °F (1927)
Min Temperature 53 °F 62 °F 43 °F (1981)
Degree Days  
Heating Degree Days 0 0  
Month to date heating degree days 0 0  
Since 1 July heating degree days 0 0  
Cooling Degree Days 0 8  
Month to date cooling degree days 174 198  
Year to date cooling degree days 2015 1793  
Growing Degree Days 16 (Base 50)    
Moisture  
Dew Point 63 °F    
Average Humidity 78    
Maximum Humidity 93    
Minimum Humidity 63    
Precipitation  
Precipitation 0.17 in 0.12 in 1.90 in (1906)
Month to date precipitation 4.65 2.18  
Year to date precipitation 38.77 38.50  
Snow  
Snow 0.00 in - - ()
Month to date snowfall 0.0  
Since 1 July snowfall 0.0  
Since 1 September snowfall 0.0  
Snow Depth 0.00 in    
Sea Level Pressure  
Sea Level Pressure 29.82 in    
Wind  
Wind Speed 6 mph (NNW)    
Max Wind Speed 17 mph    
Max Gust Speed 40 mph    
Visibility 10 miles    
Events Rain    
T = Trace of Precipitation, MM = Missing Value Source: NWS Daily Summary

Daily Weather History Graph

Daily Weather History Graph

Search for Another Location

Airport or City:

Trip Planner

Search our weather history database for the weather conditions in past years. The results will help you decide how hot, cold, wet, or windy it might be!

Date:

Astronomy

Sep. 18, 2012 Rise Set
Actual Time 6:32 AM CDT 6:48 PM CDT
Civil Twilight 6:07 AM CDT 7:14 PM CDT
Nautical Twilight 5:37 AM CDT 7:43 PM CDT
Astronomical Twilight 5:07 AM CDT 8:13 PM CDT
Moon 9:21 AM CDT (9/18) 8:22 PM CDT (9/18)
Length of Visible Light 13h 06m
Length of Day
12h 16m
Waxing Crescent, 9% of the Moon is Illuminated
Sep 18
Waxing Crescent
Sep 22
First Quarter
Sep 29
Full
Oct 8
Last Quarter
Oct 15
New

Hourly Weather History & Observations

Time (CDT) Temp. Dew Point Humidity Pressure Visibility Wind Dir Wind Speed Gust Speed Precip Events Conditions
12:53 AM 68.0 °F 66.9 °F 96% 29.73 in 10.0 mi Calm Calm - 0.27 in Rain Light Rain
1:06 AM 68.0 °F 66.2 °F 94% 29.75 in 10.0 mi ESE 3.5 mph - 0.01 in Rain Light Rain
1:13 AM 68.0 °F 66.2 °F 94% 29.75 in 10.0 mi Calm Calm - 0.02 in Rain Light Rain
1:53 AM 68.0 °F 66.0 °F 93% 29.73 in 10.0 mi Calm Calm - 0.03 in Rain Light Rain
2:04 AM 68.0 °F 66.2 °F 94% 29.75 in 10.0 mi Calm Calm - 0.01 in Rain Light Rain
2:25 AM 68.0 °F 66.2 °F 94% 29.74 in 10.0 mi Calm Calm - 0.05 in Rain Rain
2:53 AM 68.0 °F 66.0 °F 93% 29.73 in 10.0 mi Calm Calm - 0.09 in Rain Light Rain
3:06 AM 68.0 °F 66.2 °F 94% 29.76 in 10.0 mi SSW 3.5 mph - 0.01 in Rain Light Rain
3:19 AM 68.0 °F 66.2 °F 94% 29.73 in 10.0 mi NNE 4.6 mph - 0.03 in Rain Light Rain
3:53 AM 68.0 °F 66.0 °F 93% 29.73 in 10.0 mi Calm Calm - 0.04 in   Overcast
4:29 AM 68.0 °F 66.2 °F 94% 29.73 in 10.0 mi North 3.5 mph - 0.00 in Rain Light Rain
4:53 AM 68.0 °F 66.0 °F 93% 29.72 in 10.0 mi Calm Calm - 0.01 in Rain Light Rain
5:00 AM 68.0 °F 66.2 °F 94% 29.74 in 10.0 mi Calm Calm - 0.00 in Rain Light Rain
5:53 AM 66.9 °F 64.9 °F 93% 29.73 in 10.0 mi Calm Calm - 0.00 in Rain Light Rain
6:04 AM 66.2 °F 64.4 °F 94% 29.75 in 10.0 mi Calm Calm - 0.00 in   Mostly Cloudy
6:53 AM 66.0 °F 64.0 °F 93% 29.75 in 10.0 mi NNW 3.5 mph - 0.00 in   Mostly Cloudy
7:02 AM 66.2 °F 64.4 °F 94% 29.77 in 10.0 mi NW 3.5 mph - N/A   Mostly Cloudy
7:53 AM 68.0 °F 64.9 °F 90% 29.76 in 10.0 mi NW 5.8 mph - N/A   Mostly Cloudy
8:53 AM 69.1 °F 64.9 °F 87% 29.78 in 10.0 mi NNW 8.1 mph - N/A   Mostly Cloudy
9:38 AM 69.8 °F 66.2 °F 88% 29.81 in 10.0 mi NNW 9.2 mph - N/A   Overcast
9:53 AM 70.0 °F 64.9 °F 84% 29.80 in 10.0 mi NW 8.1 mph - N/A   Overcast
10:39 AM 71.6 °F 64.4 °F 78% 29.83 in 10.0 mi NNW 8.1 mph - N/A   Overcast
10:53 AM 71.1 °F 64.9 °F 81% 29.81 in 10.0 mi NNW 8.1 mph - N/A   Overcast
11:53 AM 75.0 °F 66.0 °F 73% 29.82 in 10.0 mi NNW 8.1 mph - N/A   Overcast
12:17 PM 73.4 °F 64.4 °F 73% 29.84 in 10.0 mi NNW 8.1 mph - N/A   Overcast
12:50 PM 77.0 °F 66.2 °F 69% 29.84 in 10.0 mi North 9.2 mph - N/A   Mostly Cloudy
12:53 PM 77.0 °F 64.9 °F 66% 29.82 in 10.0 mi NNW 9.2 mph - N/A   Mostly Cloudy
1:46 PM 75.2 °F 64.4 °F 69% 29.85 in 10.0 mi NNW 12.7 mph 18.4 mph 0.00 in Rain Light Rain
1:53 PM 73.9 °F 64.9 °F 73% 29.83 in 10.0 mi North 11.5 mph - 0.00 in   Mostly Cloudy
2:53 PM 73.0 °F 63.0 °F 71% 29.85 in 10.0 mi NNW 16.1 mph 24.2 mph N/A   Mostly Cloudy
3:53 PM 68.0 °F 61.0 °F 78% 29.88 in 10.0 mi NW 13.8 mph - N/A   Overcast
4:53 PM 71.1 °F 59.0 °F 66% 29.88 in 10.0 mi North 6.9 mph - N/A   Mostly Cloudy
5:53 PM 69.1 °F 57.9 °F 68% 29.91 in 10.0 mi NNW 5.8 mph - N/A   Scattered Clouds
6:53 PM 66.0 °F 55.9 °F 70% 29.93 in 10.0 mi NNW 6.9 mph - N/A   Scattered Clouds
7:53 PM 64.0 °F 51.1 °F 63% 29.96 in 10.0 mi NNW 8.1 mph - N/A   Partly Cloudy
8:53 PM 60.1 °F 51.1 °F 72% 29.99 in 10.0 mi North 4.6 mph - N/A   Clear
9:53 PM 57.0 °F 51.1 °F 81% 30.02 in 10.0 mi NNW 5.8 mph - N/A   Clear
10:53 PM 55.0 °F 48.9 °F 80% 30.03 in 10.0 mi NNW 4.6 mph - N/A   Clear
11:53 PM 54.0 °F 48.0 °F 80% 30.04 in 10.0 mi North 3.5 mph - N/A   Clear